Latest  Newer  Older  Last 2 hours slideshow  Last 24 hours slideshow  Refresh every 5 minutes 
Current image  Latest image  Rain/snow radar  Cloud coverage sat images 

All time is UTC (add 2 hours to UTC in wintertime, 3 hours to UTC in DST for Latvia local time)

2020/01/23 14:20 EVRA 231420Z 22006KT 200V260 CAVOK 03/M01 Q1018 R18/190095 NOSIG
2020/01/23 14:20 EVLA 231420Z AUTO 24019KT 9999 OVC017/// 05/02 Q1019
2020/01/23 14:20 EVVA 231420Z AUTO 22014KT 9999 SCT015 OVC055 05/02 Q1017
2020/01/23 14:20 EYKA 231420Z 25008KT CAVOK 04/M02 Q1022 R08/190095
2020/01/23 14:20 EYPA 231420Z 26007KT 200V340 9999 OVC017 05/02 Q1022 R19/0///95
2020/01/23 14:20 EYSA 231420Z 24009KT CAVOK 03/M01 Q1020 R32R/19//95 R32L/19//95 BLU NOSIG
2020/01/23 14:20 EYVI 231420Z 28008KT 9999 BKN023 02/M02 Q1022 R19/2///95 NOSIG



2020/01/23 14:20 EETN 231420Z 21007KT 9999 FEW030 02/M01 Q1012 R08/290195 NOSIG

   RIGA AIRPORT     EVRA               56 55N  023 58E   10   X     T          6 LV
   LIEPAJA INTL     EVLA        26406  56 31N  021 06E    4   X                8 LV
   VENTPILS         EVVA               57 21N  021 33E    6   X                8 LV
   KAUNAS           EYKA               54 54N  023 55E   77   X     T          6 LT
   PALANGA INTL     EYPA               55 55N  021 03E   10   X                6 LT
   SIAULIAI INTL    EYSA               55 54N  023 24E  135   X     T          6 LT
   VILNIUS INTL     EYVI        26730  54 38N  025 17E  197   X     T          6 LT
   KARDLA           EEKA        26116  58 59N  022 50E    4   X                8 EE
   KURESSAARE       EEKE               58 14N  022 31E    4   X                8 EE
   PARNU            EEPU               58 25N  024 28E   14   X                8 EE
   TALLINN          EETN        26038  59 24N  024 49E   40   X     T          8 EE
   TARTU            EETU               58 19N  026 41E   67   X                8 EE